GW1597 Weather Reports


time (UTC)temp
C
wind
direction
speed
KPH
gust
KPH
rain 1hr
cm
rain 24hr
cm
rain mn
cm
humidity
%
barometer
mb
20260504110627 5 325 0.0 0.0 0.00 0.00 0.00 94 989.1
20260504081814 6 325 0.0 0.0 0.00 0.00 0.00 91 989.8
20260504081216 6 325 0.0 0.0 0.00 0.00 0.00 92 989.8
20260504080626 6 325 0.0 0.0 0.00 0.00 0.00 92 989.8
20260504045417 6 325 0.0 0.0 0.00 0.00 0.00 88 990.5
20260504044831 6 325 0.0 0.0 0.00 0.00 0.00 88 990.5
20260504044221 6 325 0.0 0.0 0.00 0.00 0.00 88 990.5
20260504043642 6 325 0.0 0.0 0.00 0.00 0.00 87 990.5
20260504043048 6 325 0.0 1.6 0.00 0.00 0.00 87 990.1
20260504042431 6 325 0.0 0.0 0.00 0.00 0.00 87 990.1
20260504041228 7 325 0.0 0.0 0.00 0.00 0.00 86 990.1
20260504040644 7 325 0.0 1.6 0.00 0.00 0.00 86 990.1
20260504040030 7 325 1.6 3.2 0.00 0.00 0.00 85 990.1
20260504035428 7 325 1.6 1.6 0.00 0.00 0.00 84 990.1
20260504034214 8 325 0.0 0.0 0.00 0.00 0.00 82 990.1
20260504033612 8 325 0.0 0.0 0.00 0.00 0.00 81 990.1
20260504033036 8 325 0.0 0.0 0.00 0.00 0.00 80 990.1
20260504031244 8 325 0.0 0.0 0.00 0.00 0.00 80 990.1
20260504030018 8 325 0.0 0.0 0.00 0.00 0.00 80 989.8
20260504025413 8 325 0.0 0.0 0.00 0.00 0.00 80 989.8
20260504024824 8 325 0.0 0.0 0.00 0.00 0.00 81 989.8
20260504024220 8 325 0.0 0.0 0.00 0.00 0.00 80 989.8
20260504023633 8 325 1.6 3.2 0.00 0.00 0.00 79 989.8
20260504023027 9 325 0.0 0.0 0.00 0.00 0.00 75 989.5
20260504022437 9 314 0.0 0.0 0.00 0.00 0.00 75 989.5
20260504021834 9 314 0.0 1.6 0.00 0.00 0.00 77 989.5
20260504020620 9 210 0.0 0.0 0.00 0.00 0.00 78 989.5
20260504020020 8 210 0.0 0.0 0.00 0.00 0.00 77 989.8
20260504015443 9 210 0.0 0.0 0.00 0.00 0.00 77 989.5
20260504014826 9 210 0.0 0.0 0.00 0.00 0.00 77 989.5
20260504014244 8 210 0.0 0.0 0.00 0.00 0.00 77 989.1
20260504013650 8 210 0.0 0.0 0.00 0.00 0.00 77 989.1
20260504012412 8 210 0.0 0.0 0.00 0.00 0.00 77 989.5
20260504011837 8 210 0.0 0.0 0.00 0.00 0.00 75 989.5
20260504011214 8 210 0.0 0.0 0.00 0.00 0.00 75 989.5
20260504010635 8 210 0.0 0.0 0.00 0.00 0.00 74 989.5
20260504010049 8 210 0.0 0.0 0.00 0.00 0.00 74 989.1
20260504005438 9 210 0.0 0.0 0.00 0.00 0.00 75 989.5
20260504004247 10 210 0.0 3.2 0.00 0.00 0.00 72 989.1
20260504003614 10 210 0.0 0.0 0.00 0.00 0.00 70 989.1
20260504003040 10 210 1.6 3.2 0.00 0.00 0.00 67 988.8
20260504002436 10 210 0.0 0.0 0.00 0.00 0.00 67 988.8
20260504001818 10 210 0.0 0.0 0.00 0.00 0.00 66 988.8
20260504001219 11 210 0.0 0.0 0.00 0.00 0.00 67 988.8
20260504000654 11 210 0.0 0.0 0.00 0.00 0.00 64 988.8
20260504000042 11 210 0.0 0.0 0.00 0.00 0.00 64 988.8
20260503235412 12 210 0.0 0.0 0.00 0.00 0.00 61 988.8
20260503234815 12 210 1.6 3.2 0.00 0.00 0.00 59 988.8
20260503234236 12 210 3.2 3.2 0.00 0.00 0.00 57 988.8
20260503233627 13 209 0.0 1.6 0.00 0.00 0.00 56 988.8
20260503233035 13 207 0.0 0.0 0.00 0.00 0.00 53 988.8
20260503232447 14 208 0.0 3.2 0.00 0.00 0.00 52 988.8
20260503231818 15 208 1.6 3.2 0.00 0.00 0.00 47 988.8
20260503231252 16 119 0.0 0.0 0.00 0.00 0.00 44 988.8
20260503230636 16 119 0.0 0.0 0.00 0.00 0.00 41 988.8
20260503230041 16 340 3.2 3.2 0.00 0.00 0.00 40 988.8
20260503224223 17 207 0.0 3.2 0.00 0.00 0.00 37 989.1
20260503223614 18 193 0.0 1.6 0.00 0.00 0.00 36 989.1
20260503223014 18 125 1.6 12.9 0.00 0.00 0.00 32 989.1
20260503222422 19 137 0.0 0.0 0.00 0.00 0.00 32 989.1
20260503221820 19 101 1.6 4.8 0.00 0.00 0.00 30 989.1
20260503221224 20 231 0.0 9.7 0.00 0.00 0.00 29 989.1
20260503220654 20 352 0.0 0.0 0.00 0.00 0.00 34 989.5
20260503220044 19 352 0.0 3.2 0.00 0.00 0.00 33 989.1
20260503215439 20 251 3.2 8.0 0.00 0.00 0.00 28 989.1
20260503214810 20 182 0.0 3.2 0.00 0.00 0.00 31 989.1
20260503214224 20 315 0.0 4.8 0.00 0.00 0.00 29 989.1
20260503213647 20 226 1.6 6.4 0.00 0.00 0.00 31 989.1
20260503212440 20 120 6.4 11.3 0.00 0.00 0.00 31 989.5
20260503211827 19 160 1.6 4.8 0.00 0.00 0.00 33 989.5
20260503211227 18 129 3.2 8.0 0.00 0.00 0.00 29 989.5
20260503210647 20 153 0.0 3.2 0.00 0.00 0.00 30 989.5
20260503210017 20 244 1.6 8.0 0.00 0.00 0.00 31 989.5
20260503205430 19 234 1.6 6.4 0.00 0.00 0.00 30 989.5
20260503204242 18 307 0.0 1.6 0.00 0.00 0.00 29 989.8
20260503203038 19 79 4.8 11.3 0.00 0.00 0.00 30 989.8
20260503202422 18 312 1.6 6.4 0.00 0.00 0.00 32 990.1
20260503201816 19 309 0.0 4.8 0.00 0.00 0.00 31 990.1
20260503201234 18 231 0.0 6.4 0.00 0.00 0.00 33 990.1
20260503200625 17 108 0.0 6.4 0.00 0.00 0.00 33 990.5
20260503200026 17 116 0.0 3.2 0.00 0.00 0.00 32 990.5
20260503195409 17 125 6.4 8.0 0.00 0.00 0.00 34 990.5
20260503194821 17 125 6.4 19.3 0.00 0.00 0.00 32 990.8
20260503194241 18 299 4.8 11.3 0.00 0.00 0.00 33 990.8
20260503193621 18 330 1.6 3.2 0.00 0.00 0.00 33 990.8
20260503193043 18 91 4.8 9.7 0.00 0.00 0.00 34 991.1
20260503192436 17 345 6.4 8.0 0.00 0.00 0.00 31 991.1
20260503191842 17 226 1.6 9.7 0.00 0.00 0.00 33 991.1
20260503191249 17 13 6.4 11.3 0.00 0.00 0.00 31 991.5
20260503190636 16 319 1.6 14.5 0.00 0.00 0.00 30 991.5
20260503190052 17 107 3.2 8.0 0.00 0.00 0.00 35 991.5
20260503185423 17 101 4.8 8.0 0.00 0.00 0.00 34 991.8
20260503184846 16 203 3.2 8.0 0.00 0.00 0.00 37 991.8
20260503184216 16 303 0.0 14.5 0.00 0.00 0.00 33 991.8
20260503183031 17 202 3.2 6.4 0.00 0.00 0.00 36 992.2
20260503182446 17 319 8.0 11.3 0.00 0.00 0.00 36 992.2
20260503181853 16 48 6.4 6.4 0.00 0.00 0.00 33 992.2
20260503181236 17 94 11.3 11.3 0.00 0.00 0.00 36 992.5
20260503180651 16 231 4.8 14.5 0.00 0.00 0.00 38 992.2
20260503180026 15 124 9.7 17.7 0.00 0.00 0.00 34 992.5
20260503175417 15 97 14.5 16.1 0.00 0.00 0.00 37 992.5
20260503174820 15 352 3.2 9.7 0.00 0.00 0.00 38 992.5
20260503174213 15 317 3.2 4.8 0.00 0.00 0.00 39 992.5
20260503173627 15 330 9.7 12.9 0.00 0.00 0.00 41 992.8
20260503173035 15 335 1.6 4.8 0.00 0.00 0.00 38 993.2
20260503172413 15 346 8.0 9.7 0.00 0.00 0.00 39 993.2
20260503171814 15 323 3.2 6.4 0.00 0.00 0.00 40 993.5
20260503171254 14 111 11.3 11.3 0.00 0.00 0.00 39 993.5
20260503150630 11 117 4.8 14.5 0.00 0.00 0.00 45 994.9
20260503130620 4 320 1.6 1.6 0.00 0.00 0.00 89 995.2